This is the latest recevied weather packets stored in our database for station/object KC5DAQ-26. If no packets are shown the sender has not sent any weather packets the latest 10 day(s).
| Time | Temp. | Humidity | Pressure | Rain* | Wind** | Luminosity | Snow |
|---|---|---|---|---|---|---|---|
| 1788119104 | 35° C | 53% | 1017.7 hPa | 0 mm | - | 972 W/m² | - |
| 1788119042 | 35° C | 53% | 1017.7 hPa | 0 mm | - | 969 W/m² | - |
| 1788118982 | 35.56° C | 53% | 1017.8 hPa | 0 mm | - | 979 W/m² | - |
| 1788118923 | 35.56° C | 52% | 1017.8 hPa | 0 mm | - | 988 W/m² | - |
| 1788118862 | 35.56° C | 55% | 1017.9 hPa | 0 mm | - | 322 W/m² | - |
| 1788118802 | 35.56° C | 52% | 1018 hPa | 0 mm | - | 971 W/m² | - |
| 1788118744 | 35.56° C | 53% | 1018 hPa | 0 mm | - | 628 W/m² | - |
| 1788118682 | 35.56° C | 53% | 1018 hPa | 0 mm | - | 986 W/m² | - |
| 1788118622 | 35.56° C | 53% | 1018 hPa | 0 mm | - | 953 W/m² | - |
| 1788118563 | 35.56° C | 54% | 1018 hPa | 0 mm | - | 237 W/m² | - |
| 1788118519 | 35.56° C | 53% | 1018.1 hPa | 0 mm | - | 844 W/m² | - |
| 1788118443 | 35.56° C | 53% | 1018.1 hPa | 0 mm | - | 647 W/m² | - |
| 1788118383 | 35.56° C | 57% | 1018.1 hPa | 0 mm | - | 1023 W/m² | - |
| 1788118323 | 35.56° C | 55% | 1018.1 hPa | 0 mm | - | 440 W/m² | - |
| 1788118261 | 35.56° C | 53% | 1018.1 hPa | 0 mm | - | 440 W/m² | - |
| 1788118203 | 35.56° C | 55% | 1018.2 hPa | 0 mm | - | 206 W/m² | - |
| 1788118144 | 35.56° C | 54% | 1018.2 hPa | 0 mm | - | 209 W/m² | - |
| 1788118083 | 35.56° C | 54% | 1018.2 hPa | 0 mm | - | 1008 W/m² | - |
| 1788118022 | 35.56° C | 53% | 1018.1 hPa | 0 mm | - | 981 W/m² | - |
| 1788117963 | 35.56° C | 54% | 1018.2 hPa | 0 mm | - | 953 W/m² | - |
| 1788117905 | 35.56° C | 53% | 1018.2 hPa | 0 mm | - | 950 W/m² | - |
| 1788117841 | 35.56° C | 54% | 1018.2 hPa | 0 mm | - | 965 W/m² | - |
| 1788117782 | 35.56° C | 54% | 1018.2 hPa | 0 mm | - | 969 W/m² | - |
| 1788117723 | 35° C | 54% | 1018.3 hPa | 0 mm | - | 972 W/m² | - |
| 1788117662 | 35° C | 53% | 1018.4 hPa | 0 mm | - | 979 W/m² | - |
* Rain latest hour (hover to see other rain measurements)
** Current wind speed in m/s (hover to see current wind gust speed)